Home > Weather > Chula Vista > Past weeks

Flag for USA Past Weather in Chula Vista, California, USA — Yesterday and Last 2 Weeks

Now
65 °F

Fog.


Feels Like: 65 °F
Forecast: 65 / 80 °F
Wind: No wind

Location: Brown Field Municipal Airport

Current Time: Jun 29, 2016 at 2:09:24 AM

Latest Report: Jun 29, 2016 at 12:53 AM


Visibility: 6 mi

Pressure: 29.91 "Hg

Humidity: 94%

Dew Point: 63 °F

Location of Chula VistaLocation

Past Weather in Chula Vista — Graph

°F

Chula Vista Temperature Yesterday

Maximum temperature yesterday: 79 °F (at 11:53 AM)
Minimum temperature yesterday: 64 °F (at 12:53 AM)
Average temperature yesterday: 70 °F

High & Low Weather Summary for the Past Weeks

 TemperatureHumidityPressure
High94 °F (Jun 19, 1:53 PM)97% (Jun 28, 1:53 AM)30.03 "Hg (Jun 28, 1:53 AM)
Low56 °F (Jun 16, 5:53 AM)15% (Jun 20, 8:53 AM)29.81 "Hg (Jun 20, 4:53 AM)
Average70 °F67%29.93 "Hg
* Reported Jun 14 12:53 AM — Jun 29 12:53 AM, Chula Vista, Weather by CustomWeather, © 2016

Note: Actual official high and low records may vary slightly from our data, if they occured in-between our weather recording intervals... More about our weather records

Advertising

Chula Vista Weather History for the Previous 24 Hours

Scroll right to see more
 ConditionsComfort  
Time TempWeatherWind HumidityBarometerVisibility
12:53 AM
Wed, Jun 29
65 °FFog.No wind94%29.91 "Hg6 mi
11:53 PM
Tue, Jun 28
65 °FFog.No wind91%29.92 "Hg6 mi
10:53 PM65 °FClear.No wind94%29.92 "Hg7 mi
9:53 PM65 °FFog.No wind94%29.92 "Hg6 mi
8:53 PM66 °FSunny.6 mph87%29.91 "Hg10 mi
7:53 PM68 °FSunny.3 mph82%29.89 "Hg10 mi
6:53 PM72 °FSunny.6 mph73%29.89 "Hg10 mi
5:53 PM75 °FSunny.9 mph66%29.89 "Hg10 mi
4:53 PM75 °FSunny.7 mph64%29.90 "Hg10 mi
3:53 PM76 °FSunny.8 mph62%29.91 "Hg10 mi
2:53 PM76 °FSunny.9 mph62%29.93 "Hg10 mi
1:53 PM78 °FSunny.9 mph58%29.93 "Hg10 mi
12:53 PM79 °FSunny.8 mph58%29.94 "Hg10 mi
11:53 AM79 °FSunny.6 mph58%29.95 "Hg9 mi
10:53 AM76 °FSunny.8 mph64%29.96 "Hg7 mi
9:53 AM78 °FSunny.7 mph62%29.96 "Hg8 mi
8:53 AM72 °FSunny.3 mph73%29.96 "Hg6 mi
7:53 AM65 °FFog.3 mph94%29.95 "Hg2 mi
6:53 AM64 °FFog.No wind97%29.95 "Hg0 mi
5:53 AM64 °FFog.No wind97%29.93 "Hg1 mi
4:58 AM64 °FFog.No wind97%29.94 "Hg2 mi
3:53 AM64 °FFog.No wind94%29.91 "Hg4 mi
2:53 AM64 °FFog.No wind97%29.91 "Hg3 mi
Weather by CustomWeather, © 2016

See weather overviewHow to use our weather pages